YN8O-13 Weather Reports


Display with metric or nautical units.
time (UTC)temp
F
wind
direction
speed
MPH
gust
MPH
rain 1hr
in
rain 24hr
in
rain mn
in
humidity
%
barometer
mb
20260502204041 90 97 3.0 4.0 0.00 0.00 0.00 35 1007.0
20260502203041 90 97 3.0 4.0 0.00 0.00 0.00 35 1007.0
20260502202040 90 97 3.0 4.0 0.00 0.00 0.00 35 1008.0
20260502201040 90 97 3.0 4.0 0.00 0.00 0.00 35 1008.0
20260502200040 90 97 3.0 4.0 0.00 0.00 0.00 35 1008.0
20260502195039 90 97 3.0 4.0 0.00 0.00 0.00 35 1008.0
20260502194039 89 97 3.0 4.0 0.00 0.00 0.00 36 1008.0
20260502193039 88 112 3.0 4.0 0.00 0.00 0.00 39 1009.0
20260502192038 88 112 3.0 4.0 0.00 0.00 0.00 39 1009.0
20260502191038 88 112 3.0 4.0 0.00 0.00 0.00 39 1009.0
20260502190038 88 112 3.0 4.0 0.00 0.00 0.00 38 1009.0
20260502185038 88 112 3.0 4.0 0.00 0.00 0.00 38 1009.0
20260502184037 88 112 3.0 4.0 0.00 0.00 0.00 38 1009.0
20260502183037 88 112 3.0 4.0 0.00 0.00 0.00 38 1009.0
20260502182036 87 116 4.0 4.0 0.00 0.00 0.00 41 1010.0
20260502181036 87 116 4.0 4.0 0.00 0.00 0.00 40 1010.0
20260502164033 86 116 3.0 4.0 0.00 0.00 0.00 47 1012.0
20260502163033 84 114 3.0 3.0 0.00 0.00 0.00 53 1013.0
20260502162032 84 114 3.0 3.0 0.00 0.00 0.00 53 1013.0
20260502161032 83 114 3.0 3.0 0.00 0.00 0.00 53 1013.0
20260502152030 81 99 1.0 2.0 0.00 0.00 0.00 58 1013.0
20260502151030 80 99 1.0 2.0 0.00 0.00 0.00 58 1013.0
20260502123023 73 109 1.0 1.0 0.00 0.00 0.00 75 1013.0
20260502122023 73 109 1.0 1.0 0.00 0.00 0.00 75 1013.0
20260502121022 73 109 1.0 1.0 0.00 0.00 0.00 75 1013.0
20260502115022 73 109 1.0 1.0 0.00 0.00 0.00 75 1013.0
20260502114022 73 109 1.0 1.0 0.00 0.00 0.00 75 1013.0
20260502113021 73 109 1.0 1.0 0.00 0.00 0.00 75 1012.0
20260502112021 73 109 1.0 1.0 0.00 0.00 0.00 75 1012.0
20260502111021 73 109 1.0 1.0 0.00 0.00 0.00 75 1012.0
20260502110021 73 109 1.0 1.0 0.00 0.00 0.00 75 1012.0
20260502105020 73 109 1.0 1.0 0.00 0.00 0.00 75 1012.0
20260502104020 73 109 1.0 1.0 0.00 0.00 0.00 75 1012.0
20260502103020 73 109 1.0 1.0 0.00 0.00 0.00 75 1012.0
20260502102019 73 109 1.0 1.0 0.00 0.00 0.00 75 1012.0
20260502101019 73 109 1.0 1.0 0.00 0.00 0.00 75 1012.0
20260502091018 78 87 1.0 1.0 0.00 0.00 0.00 63 1012.0
20260502071014 78 87 1.0 1.0 0.00 0.00 0.00 63 1012.0
20260502070014 78 87 1.0 1.0 0.00 0.00 0.00 63 1012.0
20260502065014 78 87 1.0 1.0 0.00 0.00 0.00 63 1012.0
20260502064013 78 87 1.0 1.0 0.00 0.00 0.00 63 1012.0
20260502063013 78 87 1.0 1.0 0.00 0.00 0.00 63 1012.0
20260502062013 78 87 1.0 1.0 0.00 0.00 0.00 63 1012.0
20260502061012 78 87 1.0 1.0 0.00 0.00 0.00 63 1012.0
20260502060012 78 87 1.0 1.0 0.00 0.00 0.00 63 1012.0
20260502055012 78 87 2.0 2.0 0.00 0.00 0.00 63 1012.0
20260502054012 81 101 4.0 8.0 0.00 0.00 0.00 49 1012.0
20260502053011 81 101 4.0 8.0 0.00 0.00 0.00 49 1012.0
20260502052011 81 101 4.0 8.0 0.00 0.00 0.00 49 1012.0
20260502051011 81 101 4.0 8.0 0.00 0.00 0.00 49 1012.0
20260502050011 81 101 4.0 8.0 0.00 0.00 0.00 49 1012.0
20260502045010 81 101 4.0 8.0 0.00 0.00 0.00 49 1012.0
20260502044010 81 101 4.0 8.0 0.00 0.00 0.00 49 1012.0
20260502043010 81 101 4.0 8.0 0.00 0.00 0.00 49 1012.0
20260502042009 81 101 4.0 8.0 0.00 0.00 0.00 49 1012.0
20260502041009 81 101 4.0 8.0 0.00 0.00 0.00 49 1012.0
20260502040009 81 101 4.0 8.0 0.00 0.00 0.00 49 1012.0
20260502035008 81 101 4.0 8.0 0.00 0.00 0.00 49 1012.0
20260502034008 81 101 4.0 8.0 0.00 0.00 0.00 49 1012.0
20260502033008 81 101 4.0 8.0 0.00 0.00 0.00 49 1012.0
20260502032007 81 101 4.0 8.0 0.00 0.00 0.00 49 1011.0
20260502031007 81 101 4.0 8.0 0.00 0.00 0.00 49 1011.0
20260502030007 81 101 4.0 8.0 0.00 0.00 0.00 49 1011.0
20260502025006 81 101 4.0 8.0 0.00 0.00 0.00 49 1011.0
20260502024006 81 101 4.0 8.0 0.00 0.00 0.00 49 1011.0
20260502023006 81 101 4.0 8.0 0.00 0.00 0.00 49 1010.0
20260502022005 81 101 4.0 8.0 0.00 0.00 0.00 49 1010.0
20260502021005 81 101 4.0 8.0 0.00 0.00 0.00 49 1010.0
20260502020005 81 101 4.0 8.0 0.00 0.00 0.00 49 1010.0
20260502015005 81 101 4.0 8.0 0.00 0.00 0.00 49 1010.0
20260502014004 81 101 4.0 8.0 0.00 0.00 0.00 49 1010.0
20260502013004 81 101 4.0 8.0 0.00 0.00 0.00 49 1010.0
20260502012004 81 101 4.0 8.0 0.00 0.00 0.00 49 1009.0
20260502011003 81 101 4.0 8.0 0.00 0.00 0.00 49 1009.0
20260502010003 81 101 4.0 8.0 0.00 0.00 0.00 49 1009.0
20260502005003 81 101 4.0 8.0 0.00 0.00 0.00 49 1009.0
20260502004002 81 101 4.0 8.0 0.00 0.00 0.00 49 1009.0
20260502003002 89 117 5.0 4.0 0.00 0.00 0.00 30 1008.0
20260502002002 89 117 5.0 4.0 0.00 0.00 0.00 30 1008.0
20260502001002 89 117 5.0 4.0 0.00 0.00 0.00 30 1008.0
20260502000001 89 117 5.0 4.0 0.00 0.00 0.00 30 1008.0
20260501235001 89 117 5.0 4.0 0.00 0.00 0.00 30 1008.0
20260501234001 89 117 5.0 4.0 0.00 0.00 0.00 30 1008.0
20260501233001 89 117 5.0 4.0 0.00 0.00 0.00 30 1008.0
20260501232000 89 117 5.0 4.0 0.00 0.00 0.00 30 1007.0
20260501231000 89 117 5.0 4.0 0.00 0.00 0.00 30 1007.0
20260501230000 89 117 5.0 4.0 0.00 0.00 0.00 30 1007.0
20260501224959 89 117 5.0 4.0 0.00 0.00 0.00 30 1007.0
20260501223959 89 117 5.0 4.0 0.00 0.00 0.00 30 1007.0
20260501222959 89 117 5.0 4.0 0.00 0.00 0.00 30 1007.0
20260501221959 89 117 5.0 4.0 0.00 0.00 0.00 30 1007.0
20260501220958 89 117 5.0 4.0 0.00 0.00 0.00 30 1007.0
20260501215958 89 117 5.0 4.0 0.00 0.00 0.00 30 1006.0
20260501214958 89 117 5.0 4.0 0.00 0.00 0.00 30 1006.0
20260501213957 89 117 5.0 4.0 0.00 0.00 0.00 30 1006.0
20260501212957 89 117 5.0 4.0 0.00 0.00 0.00 30 1007.0
20260501211957 89 117 5.0 4.0 0.00 0.00 0.00 30 1007.0
20260501210956 89 117 5.0 4.0 0.00 0.00 0.00 30 1007.0
20260501205956 89 117 5.0 4.0 0.00 0.00 0.00 30 1006.0
20260501204955 89 117 5.0 4.0 0.00 0.00 0.00 30 1006.0